Temperature
5 5 5 5 5 6 5 5 5 5 6 6 5 6 6 7 7 6 6 6 6 7 7 8 8 9 9 10 10 10 10 11 11 11 11 11 12 12 12 12 13 13 13 13
5 5 6 6 6 6 5 5 5 5 6 6 5 5 6 6 6 6 6 6 6 6 7 7 8 8 9 9 9 10 10 10 11 11 11 11 12 12 12 12 12 12 12 12
5 6 6 6 6 5 5 5 5 5 6 6 5 5 6 6 6 7 6 6 6 6 6 7 7 8 8 8 9 9 9 10 10 11 11 11 11 11 11 11 11 11 12 12
5 6 6 6 6 6 6 6 6 6 5 5 5 5 5 6 6 6 5 5 6 6 6 6 7 7 8 8 8 9 9 9 10 10 10 10 10 11 11 11 11 11 11 11
5 6 6 6 6 6 6 6 6 6 5 5 5 5 5 5 6 6 5 5 5 5 5 6 6 7 7 8 8 8 9 9 10 10 10 10 10 10 10 10 10 11 11 11
5 6 6 6 6 6 6 6 5 5 4 5 5 5 5 5 5 5 5 5 5 5 5 5 6 6 7 7 8 8 8 9 9 9 9 9 9 10 10 10 10 10 10 10
5 6 6 6 6 6 6 5 4 4 4 5 5 5 5 5 5 5 4 4 4 4 4 5 5 6 6 7 7 7 8 8 8 9 9 9 9 9 9 10 10 10 10 10
4 5 6 6 6 6 5 5 5 5 5 5 5 5 5 5 5 5 4 4 4 4 4 4 5 5 5 6 6 7 7 7 7 8 8 9 9 9 9 9 9 9 9 10
4 4 6 6 6 6 6 5 5 4 4 4 5 5 5 5 5 5 4 4 4 4 4 4 4 5 5 5 6 6 6 6 7 7 7 8 8 8 9 9 9 9 9 9
4 4 5 5 6 6 6 5 4 4 5 5 5 5 5 5 5 4 4 3 3 3 3 3 4 4 4 5 5 5 6 6 6 6 7 7 8 8 8 8 8 8 9 9
4 4 4 5 5 5 5 5 4 4 4 5 5 6 6 5 4 4 3 3 3 3 3 3 4 4 4 4 4 5 5 5 6 6 6 7 7 8 8 8 8 8 8 8
4 4 3 4 5 5 5 5 4 5 4 3 4 5 5 4 4 4 3 3 3 3 3 3 3 4 4 4 4 4 5 5 5 5 6 6 7 7 7 8 8 8 8 8
4 4 4 5 5 5 5 5 4 4 3 3 4 5 5 4 4 4 3 3 3 3 3 3 3 3 3 4 4 4 4 4 5 5 6 6 6 7 7 7 7 7 7 7
5 4 4 5 5 4 4 5 4 4 4 4 4 4 4 4 3 3 3 3 3 3 3 3 3 3 3 3 3 4 4 4 4 5 5 5 5 6 6 6 6 6 6 6
4 4 4 4 4 4 4 4 4 4 4 4 4 4 4 4 3 3 3 3 3 3 3 3 3 3 3 3 3 3 3 4 4 4 4 4 5 5 5 5 5 5 5 5
3 4 4 4 4 4 4 4 4 4 4 4 4 4 4 4 4 3 3 3 2 2 2 2 3 3 3 3 3 3 3 3 3 4 4 4 4 4 4 4 4 5 5 5
2 3 4 4 4 5 5 4 4 4 4 4 4 4 3 3 3 3 3 3 3 3 3 3 3 2 2 3 3 3 3 3 3 3 3 3 4 4 4 4 4 4 4 4
2 3 3 3 4 6 6 5 4 4 4 4 4 4 3 3 4 4 4 3 3 3 3 3 2 2 2 2 2 2 3 3 3 3 3 3 3 3 3 3 4 4 4 4
2 3 3 3 3 4 5 5 4 4 5 4 4 3 3 3 3 3 4 4 3 3 3 3 2 2 2 2 2 2 2 2 2 2 2 2 2 2 3 3 3 3 3 3
1 1 2 3 4 5 6 5 5 5 5 4 3 3 2 3 2 3 4 4 3 3 3 2 2 2 2 2 2 2 2 2 2 2 2 1 2 2 2 2 2 2 2 3
2 2 2 3 3 3 4 4 5 5 6 5 4 4 3 3 3 4 4 3 3 3 3 2 2 2 2 2 2 2 1 1 1 1 1 1 1 1 1 1 1 2 2 2
2 2 2 2 3 4 4 3 4 5 5 5 5 5 4 4 4 4 4 3 3 3 2 2 2 2 1 1 1 1 1 1 1 1 1 1 1 1 1 1 1 1 1 1
0 1 1 2 4 4 4 5 6 5 5 5 5 5 5 4 4 4 4 3 3 2 2 2 2 1 1 1 1 1 0 0 0 0 0 0 0 0 0 0 0 0 0 0
-0 0 0 1 2 3 4 5 6 6 6 6 5 5 5 5 4 4 3 3 3 2 2 2 1 1 1 1 0 0 0 -0 -0 -0 -0 -0 -0 -0 -0 -0 -1 -1 -1 -1
1 -0 -0 1 1 3 5 6 6 6 6 5 5 5 5 4 4 4 3 3 2 2 2 1 1 1 1 0 0 -0 -0 -0 -0 -0 -1 -1 -1 -1 -1 -1 -1 -1 -1 -1
-1 0 1 2 3 2 5 6 6 6 6 5 5 4 4 4 4 3 3 3 2 2 1 1 1 1 0 -0 -0 -1 -1 -1 -1 -1 -1 -1 -1 -1 -1 -2 -1 -1 -2 -2
Wind_Speed
2 1 3 6 7 5 4 5 9 9 7 6 9 13 14 10 7 8 8 8 8 8 7 5 5 4 4 4 4 4 5 5 5 4 5 5 5 5 5 5 6 7 7 8
2 4 6 4 3 5 5 7 9 9 5 5 7 12 10 7 5 6 8 8 8 8 7 6 5 3 2 3 4 4 5 5 5 5 5 4 5 5 5 5 5 6 7 8
4 4 2 2 3 4 6 6 6 7 7 3 5 8 5 5 5 7 9 8 8 8 8 7 6 4 2 2 3 4 5 5 6 6 4 4 4 3 3 4 5 6 7 8
4 4 2 3 4 4 5 5 6 6 5 4 3 5 7 7 9 10 11 11 10 9 9 7 6 4 3 2 2 2 4 4 5 5 6 7 6 6 5 5 5 5 6 7
3 2 1 3 4 4 5 3 4 4 3 4 2 2 7 6 9 12 12 12 12 11 9 8 7 5 4 3 1 1 2 3 3 5 6 6 6 5 4 4 5 5 5 6
3 2 2 3 2 3 2 2 2 1 1 2 2 1 5 5 8 11 11 12 12 11 10 9 7 6 5 4 2 1 1 1 2 4 5 6 6 5 5 5 5 4 4 4
4 3 2 1 2 2 2 3 4 5 3 3 2 1 5 4 6 7 9 11 11 11 10 10 8 7 7 6 5 4 4 2 2 2 3 4 5 5 6 5 5 4 4 4
1 4 3 1 1 1 1 2 2 1 3 4 3 3 5 3 5 6 7 7 9 10 10 10 9 7 7 7 7 7 6 4 3 3 2 1 2 3 3 3 3 3 3 3
1 3 3 1 1 1 0 1 2 2 1 3 4 5 4 2 6 7 8 9 10 10 10 10 10 9 8 7 7 7 7 7 6 5 4 4 3 2 2 2 2 2 1 1
2 2 4 4 1 2 1 2 2 1 1 3 5 4 4 5 6 7 7 8 9 9 9 9 9 9 8 8 8 8 9 8 7 6 5 4 4 3 2 2 2 1 1 1
1 0 4 3 0 1 1 1 1 1 2 1 3 5 2 2 2 3 5 6 7 8 9 9 9 9 10 10 10 10 9 9 9 8 7 6 6 4 4 3 2 1 1 1
2 2 2 4 3 1 1 2 2 1 1 2 2 5 2 0 1 2 3 5 6 7 8 8 9 10 10 11 11 11 10 10 9 9 9 8 7 6 6 4 3 2 2 2
2 2 2 5 4 2 1 1 2 2 1 2 2 5 2 2 3 3 3 4 5 6 7 8 9 10 10 11 11 11 11 10 9 9 9 9 9 8 7 5 4 4 3 2
2 2 3 4 4 3 3 3 2 3 2 3 5 6 5 4 3 3 3 3 4 5 6 8 8 9 9 10 10 10 10 10 10 10 10 10 9 8 6 6 5 4 3 2
3 1 3 5 6 4 5 5 4 5 6 6 6 6 8 4 3 2 2 2 4 5 6 7 7 7 8 9 10 10 10 10 9 10 10 9 8 7 7 7 6 5 4 3
2 0 2 4 3 4 5 7 6 5 5 5 5 7 5 2 1 1 1 1 2 3 4 5 6 7 7 8 8 8 9 9 8 9 9 8 8 8 8 7 6 6 5 4
1 1 1 4 6 4 6 6 6 5 5 6 6 6 2 2 3 4 3 2 1 2 2 3 4 5 5 6 6 6 7 7 8 8 8 8 8 8 8 7 7 6 6 4
2 1 0 3 5 4 5 2 5 5 5 7 6 4 4 4 3 2 3 3 2 2 2 2 3 3 4 5 5 5 6 7 7 8 8 9 9 8 8 7 7 6 5 4
3 3 1 1 3 8 6 2 3 3 5 5 6 4 2 1 2 2 2 3 3 3 2 1 1 2 3 4 4 4 6 7 7 8 8 8 8 8 8 8 8 6 5 5
3 3 2 1 2 5 5 1 2 2 5 3 5 5 3 3 0 4 2 1 1 1 1 0 1 2 2 3 3 4 5 6 7 7 7 7 7 7 7 7 6 6 5 4
1 1 3 3 4 8 6 1 3 2 5 2 4 5 5 5 5 3 1 1 1 1 1 1 1 1 2 3 3 4 5 5 6 6 6 7 6 6 6 6 6 6 5 4
5 4 5 4 4 8 3 4 4 6 3 2 4 5 5 4 2 2 2 2 1 1 1 1 1 1 2 2 3 4 4 5 5 5 6 6 6 6 6 6 5 5 5 4
6 7 5 8 8 5 4 6 4 2 3 3 4 4 5 4 3 3 2 2 2 1 1 0 0 1 2 2 2 3 4 5 5 5 5 6 6 5 5 5 5 5 5 4
5 3 3 6 9 7 7 7 5 4 5 4 4 4 5 5 4 4 3 2 2 1 1 1 1 1 2 2 2 3 4 4 4 5 6 6 6 6 6 5 4 4 4 5
6 5 4 7 8 8 6 6 6 4 4 3 2 4 5 5 4 4 4 3 3 2 1 1 2 2 3 3 3 3 3 3 4 5 5 5 5 6 6 5 4 5 4 5
6 8 7 8 6 5 7 5 3 4 5 5 4 3 3 5 5 4 4 3 3 2 2 2 2 3 3 3 3 3 3 2 3 4 5 4 5 5 5 5 6 7 7 9
Wind_Direction
112 116 221 223 215 227 249 268 285 284 287 293 283 289 299 309 321 320 315 316 316 307 294 295 279 262 239 216 204 209 209 213 195 180 177 181 193 195 188 192 187 190 187 186
67 249 243 235 229 241 255 276 285 293 300 291 297 296 301 311 319 329 333 328 327 328 333 331 317 305 248 211 208 208 214 209 199 190 184 183 188 189 185 190 193 196 191 190
214 257 252 212 242 253 260 247 263 281 310 299 309 309 315 332 346 351 352 348 349 346 335 334 340 327 307 248 216 218 217 211 198 190 180 185 175 166 175 186 200 206 199 196
247 268 250 239 250 228 274 239 247 280 313 317 351 313 313 336 350 358 355 355 355 352 348 347 344 349 343 313 261 219 212 202 197 188 186 186 187 189 194 194 201 207 204 203
255 263 233 247 254 217 241 267 268 281 279 300 309 266 301 340 350 352 352 354 355 352 354 358 357 351 351 345 328 244 208 187 194 191 191 187 195 195 188 184 190 202 203 203
254 265 219 233 265 219 249 317 323 14 54 308 291 239 302 338 337 341 349 353 352 355 359 0 4 7 7 5 13 19 90 144 182 182 187 191 193 188 184 195 195 195 194 199
332 316 291 235 333 5 58 47 12 3 4 276 312 270 277 316 336 341 345 348 350 358 2 3 5 9 12 11 19 40 53 59 82 127 168 187 192 187 195 198 189 187 195 202
19 307 299 327 203 271 324 129 143 249 277 299 331 276 275 312 338 350 353 354 1 3 5 9 15 19 14 14 21 38 44 49 55 62 55 70 142 174 190 188 182 190 199 200
161 274 312 301 255 170 134 143 171 156 298 295 296 299 306 342 1 2 3 7 9 6 9 14 19 24 21 20 24 36 40 39 39 38 35 44 64 116 129 136 154 177 172 184
153 282 311 318 17 25 123 150 91 110 349 310 310 304 301 321 343 353 357 2 4 6 11 14 18 21 22 27 30 37 39 38 36 33 34 43 55 84 97 107 116 120 115 142
151 190 320 351 12 299 35 66 96 116 151 180 305 292 257 264 317 340 342 350 2 5 10 13 16 22 26 29 32 34 34 36 34 34 36 42 41 51 67 73 82 99 74 74
162 128 292 278 269 228 206 204 171 173 270 188 221 277 333 159 326 358 350 354 4 10 11 13 18 22 26 29 29 30 31 33 30 29 33 36 35 42 48 48 42 53 54 31
145 112 355 346 348 357 310 236 182 147 137 187 218 273 342 29 12 4 359 1 5 13 15 17 20 23 23 23 24 25 25 26 26 30 33 32 30 34 36 28 25 31 31 19
111 129 181 218 248 264 276 262 206 165 195 236 236 261 294 318 328 335 344 357 5 14 20 22 19 17 18 18 18 20 20 19 22 26 29 29 24 23 23 20 20 22 19 8
85 185 242 257 262 251 253 257 233 209 210 220 247 253 269 267 259 276 315 353 13 14 16 16 13 12 15 17 15 16 15 14 19 24 24 19 16 20 23 23 18 13 10 356
49 178 311 303 298 276 269 260 242 232 222 231 254 270 264 240 221 273 287 333 354 358 3 4 8 10 10 12 10 10 9 7 15 23 20 13 15 16 16 16 14 14 11 1
33 84 350 294 312 328 284 246 210 219 211 193 220 241 219 253 239 228 226 225 271 316 337 350 354 354 358 0 2 5 2 4 14 18 15 11 11 12 8 5 7 6 2 359
147 114 157 305 348 282 254 242 193 218 247 223 233 239 221 238 252 248 210 202 230 258 292 320 339 347 351 353 357 358 5 11 14 14 9 5 4 3 0 2 360 356 353 351
170 150 131 354 308 287 297 243 180 205 282 228 219 234 203 100 9 308 230 204 213 219 230 255 301 336 350 352 349 1 11 13 13 8 1 356 355 353 353 353 349 346 348 349
93 116 135 156 278 263 274 260 178 105 294 252 197 201 172 120 314 268 238 197 207 208 193 179 13 16 7 346 351 17 12 10 3 351 344 344 346 345 340 337 336 337 340 338
136 136 176 202 245 268 262 217 118 155 267 269 190 190 177 193 218 236 182 193 188 195 163 109 73 16 333 342 7 16 5 351 338 337 338 340 339 335 332 333 334 336 338 341
190 183 197 179 220 262 220 137 184 231 276 224 198 192 195 216 228 195 183 180 154 111 70 78 61 337 330 355 15 0 336 327 334 335 336 334 333 334 336 334 334 338 337 341
212 199 199 203 224 258 215 220 250 231 244 239 212 212 189 199 217 212 197 182 174 170 181 172 228 305 321 340 357 320 312 323 329 332 333 330 333 335 334 335 338 342 344 342
261 207 222 265 267 264 257 258 269 247 243 245 225 206 189 202 209 208 203 200 196 188 195 200 218 283 303 307 309 297 310 322 327 329 331 335 339 339 340 339 338 337 335 331
237 191 225 263 280 298 283 250 252 257 250 238 231 208 201 194 207 207 208 211 210 215 211 208 227 254 273 285 294 307 313 324 325 325 331 333 334 331 331 330 325 322 310 312
206 193 198 237 242 234 270 280 243 236 239 225 211 216 213 200 204 205 213 212 205 211 215 234 245 258 270 271 282 298 308 320 325 326 328 326 327 326 327 325 327 327 326 324
Height
1485 1488 1488 1487 1487 1487 1488 1488 1486 1481 1476 1475 1471 1465 1458 1455 1452 1448 1445 1441 1437 1434 1432 1430 1429 1430 1430 1431 1433 1436 1440 1444 1447 1450 1453 1457 1460 1463 1467 1470 1474 1478 1481 1484
1488 1487 1484 1484 1485 1486 1486 1486 1484 1479 1474 1473 1469 1463 1456 1453 1451 1448 1444 1440 1436 1431 1428 1427 1426 1426 1426 1428 1430 1433 1435 1438 1442 1445 1449 1452 1455 1458 1461 1465 1469 1473 1476 1479
1485 1484 1481 1483 1484 1485 1484 1485 1482 1480 1475 1471 1470 1463 1457 1453 1450 1447 1444 1440 1435 1432 1428 1425 1423 1423 1423 1424 1426 1429 1431 1434 1437 1440 1444 1448 1451 1454 1457 1460 1463 1467 1471 1474
1485 1482 1481 1482 1482 1483 1482 1478 1478 1477 1478 1477 1475 1471 1460 1455 1451 1448 1445 1440 1436 1432 1428 1425 1422 1421 1421 1421 1422 1424 1427 1430 1432 1436 1439 1442 1445 1448 1451 1455 1458 1462 1465 1468
1483 1481 1481 1481 1480 1480 1479 1476 1477 1476 1478 1479 1475 1475 1465 1457 1453 1450 1447 1443 1438 1433 1429 1425 1422 1421 1420 1419 1420 1422 1424 1425 1428 1432 1435 1438 1441 1444 1447 1451 1454 1458 1460 1463
1482 1480 1480 1479 1478 1478 1477 1477 1476 1478 1480 1480 1475 1475 1467 1461 1458 1453 1449 1445 1440 1435 1430 1426 1423 1421 1420 1419 1420 1420 1420 1421 1425 1428 1431 1434 1436 1439 1443 1446 1449 1452 1455 1457
1483 1480 1478 1478 1478 1477 1478 1482 1487 1485 1487 1480 1474 1473 1468 1461 1459 1456 1452 1447 1442 1437 1432 1428 1425 1422 1420 1420 1419 1419 1419 1420 1423 1425 1427 1430 1432 1436 1439 1441 1444 1446 1449 1452
1487 1486 1479 1478 1478 1479 1479 1482 1488 1487 1485 1481 1475 1473 1467 1461 1459 1456 1453 1449 1445 1440 1435 1431 1427 1424 1422 1421 1419 1419 1418 1419 1421 1423 1425 1426 1429 1432 1435 1437 1440 1443 1445 1448
1488 1486 1479 1477 1477 1478 1479 1482 1483 1487 1488 1487 1477 1473 1464 1460 1458 1456 1453 1450 1447 1443 1439 1434 1430 1427 1425 1423 1421 1420 1419 1419 1420 1421 1422 1423 1426 1429 1431 1434 1437 1439 1441 1443
1486 1487 1481 1479 1477 1478 1479 1481 1485 1486 1484 1481 1476 1474 1468 1462 1460 1458 1455 1453 1449 1445 1441 1437 1434 1431 1428 1426 1424 1422 1421 1421 1421 1422 1422 1423 1424 1426 1429 1431 1433 1435 1438 1440
1485 1488 1485 1481 1479 1480 1480 1481 1483 1486 1486 1486 1481 1473 1464 1463 1461 1460 1458 1455 1452 1448 1444 1440 1437 1433 1431 1428 1426 1423 1423 1422 1423 1422 1422 1423 1423 1425 1426 1428 1430 1433 1435 1437
1485 1489 1489 1483 1479 1478 1479 1480 1482 1484 1486 1489 1486 1477 1463 1462 1461 1460 1459 1456 1454 1451 1448 1444 1440 1437 1433 1430 1428 1426 1426 1425 1424 1423 1422 1423 1424 1424 1425 1427 1429 1431 1432 1434
1484 1488 1490 1484 1484 1482 1480 1479 1480 1483 1486 1488 1483 1474 1463 1462 1462 1461 1459 1457 1455 1453 1449 1446 1443 1439 1436 1434 1432 1430 1429 1428 1427 1425 1424 1424 1424 1424 1425 1427 1428 1429 1430 1431
1482 1487 1490 1487 1483 1481 1480 1478 1479 1481 1484 1483 1478 1471 1464 1463 1462 1461 1460 1458 1457 1454 1452 1449 1446 1443 1441 1438 1436 1434 1432 1431 1429 1428 1427 1426 1425 1425 1426 1426 1426 1427 1428 1429
1483 1487 1485 1484 1480 1480 1478 1476 1476 1478 1477 1478 1471 1469 1463 1462 1462 1461 1460 1459 1457 1456 1454 1451 1449 1446 1444 1442 1440 1437 1436 1434 1432 1430 1429 1428 1427 1426 1426 1425 1425 1425 1425 1426
1485 1486 1484 1482 1478 1477 1475 1472 1473 1473 1472 1472 1470 1467 1461 1461 1461 1461 1460 1459 1458 1457 1456 1454 1452 1449 1447 1445 1443 1441 1439 1437 1435 1433 1432 1430 1429 1427 1426 1425 1424 1424 1423 1423
1487 1487 1487 1485 1481 1475 1473 1468 1468 1468 1467 1467 1467 1463 1460 1460 1460 1460 1460 1460 1459 1458 1457 1456 1454 1452 1450 1448 1446 1444 1441 1439 1437 1435 1433 1432 1429 1427 1426 1425 1424 1422 1421 1421
1487 1488 1490 1488 1482 1476 1467 1462 1462 1463 1462 1462 1460 1459 1459 1458 1458 1459 1459 1459 1459 1458 1458 1456 1455 1453 1452 1450 1448 1446 1444 1441 1439 1437 1435 1433 1431 1429 1427 1426 1424 1423 1421 1420
1486 1488 1490 1490 1487 1478 1464 1461 1462 1463 1460 1456 1457 1457 1458 1458 1458 1458 1458 1458 1458 1458 1457 1456 1455 1454 1452 1451 1449 1447 1444 1442 1440 1438 1436 1434 1432 1430 1428 1426 1424 1422 1420 1419
1486 1488 1491 1490 1485 1477 1462 1460 1459 1462 1460 1454 1454 1455 1457 1458 1461 1458 1456 1456 1456 1456 1456 1455 1454 1453 1452 1450 1449 1447 1444 1442 1440 1438 1437 1435 1432 1430 1428 1426 1424 1421 1419 1417
1487 1488 1490 1489 1487 1474 1462 1460 1461 1466 1459 1452 1452 1453 1454 1456 1456 1456 1455 1455 1455 1455 1455 1454 1453 1452 1450 1449 1448 1446 1444 1442 1441 1439 1436 1434 1432 1430 1428 1425 1423 1420 1418 1416
1485 1486 1486 1487 1485 1473 1459 1459 1461 1457 1452 1451 1450 1451 1452 1453 1453 1453 1453 1453 1453 1453 1453 1452 1452 1451 1450 1448 1446 1445 1443 1442 1440 1438 1436 1434 1431 1429 1427 1424 1421 1419 1417 1414
1482 1479 1477 1476 1468 1458 1456 1454 1453 1452 1451 1450 1449 1450 1451 1451 1451 1451 1451 1452 1452 1452 1451 1451 1450 1449 1448 1447 1445 1443 1442 1441 1439 1436 1434 1432 1430 1427 1425 1422 1420 1417 1415 1412
1475 1473 1473 1469 1458 1454 1452 1451 1451 1450 1449 1449 1449 1449 1449 1449 1449 1450 1450 1450 1450 1450 1450 1449 1448 1447 1446 1445 1443 1442 1441 1439 1437 1435 1433 1430 1428 1425 1423 1421 1418 1416 1413 1411
1470 1470 1469 1465 1456 1451 1447 1447 1447 1447 1447 1447 1447 1447 1447 1448 1448 1448 1448 1448 1448 1448 1448 1447 1446 1445 1444 1443 1442 1440 1439 1437 1435 1434 1431 1428 1426 1424 1421 1419 1417 1415 1413 1411
1461 1462 1462 1457 1450 1450 1446 1445 1444 1444 1444 1444 1444 1444 1445 1446 1446 1446 1446 1446 1445 1445 1445 1444 1444 1443 1442 1441 1439 1438 1437 1435 1433 1431 1429 1427 1424 1422 1420 1417 1415 1413 1412 1409